H1 CPF 2 NER 2021 2 1 9 032 01 glonass122 H2 1004103 9122 37139 2021 2 1 0 0 0 2021 2 4 23 45 0 900 1 1 0 0 0 1 H9 10 0 59246 0.00000 0 9270784.250 -21277710.596 10708936.582 10 0 59246 900.00000 0 9824673.780 -22282178.901 7792121.758 10 0 59246 1800.00000 0 10117364.322 -23007766.148 4724988.073 10 0 59246 2700.00000 0 10184050.975 -23411856.553 1566763.591 10 0 59246 3600.00000 0 10068244.566 -23461782.336 -1621652.275 10 0 59246 4500.00000 0 9819708.808 -23136253.217 -4778839.086 10 0 59246 5400.00000 0 9492150.692 -22426333.895 -7844011.006 10 0 59246 6300.00000 0 9140759.668 -21335930.120 -10758157.931 10 0 59246 7200.00000 0 8819696.909 -19881763.798 -13465152.645 10 0 59246 8100.00000 0 8579637.679 -18092837.800 -15912805.312 10 0 59246 9000.00000 0 8465467.668 -16009411.223 -18053847.484 10 0 59246 9900.00000 0 8514227.997 -13681525.368 -19846828.691 10 0 59246 10800.00000 0 8753393.986 -11167138.401 -21256910.031 10 0 59246 11700.00000 0 9199559.660 -8529942.376 -22256540.413 10 0 59246 12600.00000 0 9857584.172 -5836949.378 -22826002.603 10 0 59246 13500.00000 0 10720238.025 -3155943.181 -22953817.947 10 0 59246 14400.00000 0 11768367.174 -552898.932 -22637000.497 10 0 59246 15300.00000 0 12971572.018 1910524.255 -21881153.403 10 0 59246 16200.00000 0 14289377.231 4179314.975 -20700402.826 10 0 59246 17100.00000 0 15672847.702 6207168.663 -19117167.322 10 0 59246 18000.00000 0 17066586.576 7958187.375 -17161763.649 10 0 59246 18900.00000 0 18411034.428 9408147.490 -14871853.215 10 0 59246 19800.00000 0 19644974.601 10545279.861 -12291736.839 10 0 59246 20700.00000 0 20708139.514 11370526.965 -9471509.254 10 0 59246 21600.00000 0 21543806.926 11897263.834 -6466088.296 10 0 59246 22500.00000 0 22101274.204 12150492.618 -3334137.305 10 0 59246 23400.00000 0 22338102.599 12165543.789 -136902.529 10 0 59246 24300.00000 0 22222032.691 11986339.133 3063009.998 10 0 59246 25200.00000 0 21732485.920 11663291.490 6202891.590 10 0 59246 26100.00000 0 20861584.986 11250932.788 9221194.036 10 0 59246 27000.00000 0 19614647.148 10805374.425 12058770.423 10 0 59246 27900.00000 0 18010127.819 10381711.687 14660065.756 10 0 59246 28800.00000 0 16079016.437 10031486.304 16974230.755 10 0 59246 29700.00000 0 13863710.874 9800318.408 18956134.419 10 0 59246 30600.00000 0 11416419.596 9725811.063 20567253.897 10 0 59246 31500.00000 0 8797161.387 9835817.876 21776423.432 10 0 59246 32400.00000 0 6071449.381 10147147.457 22560428.126 10 0 59246 33300.00000 0 3307759.092 10664758.743 22904432.218 10 0 59246 34200.00000 0 574888.505 11381479.317 22802235.566 10 0 59246 35100.00000 0 -2060678.400 12278255.906 22256356.101 10 0 59246 36000.00000 0 -4537294.782 13324923.391 21277939.665 10 0 59246 36900.00000 0 -6800456.789 14481456.724 19886502.202 10 0 59246 37800.00000 0 -8804798.652 15699650.191 18109512.377 10 0 59246 38700.00000 0 -10515697.539 16925151.188 15981825.421 10 0 59246 39600.00000 0 -11910425.585 18099761.631 13544981.469 10 0 59246 40500.00000 0 -12978805.884 19163909.996 10846383.609 10 0 59246 41400.00000 0 -13723349.822 20059190.831 7938372.485 10 0 59246 42300.00000 0 -14158874.356 20730866.686 4877215.658 10 0 59246 43200.00000 0 -14311618.864 21130229.773 1722030.824 10 0 59246 44100.00000 0 -14217901.145 21216726.946 -1466337.449 10 0 59246 45000.00000 0 -13922370.280 20959761.719 -4626467.288 10 0 59246 45900.00000 0 -13475929.867 20340100.313 -7697515.382 10 0 59246 46800.00000 0 -12933417.871 19350824.799 -10620359.263 10 0 59246 47700.00000 0 -12351138.701 17997794.545 -13338706.528 10 0 59246 48600.00000 0 -11784348.725 16299596.719 -15800152.275 10 0 59246 49500.00000 0 -11284798.206 14286986.762 -17957166.892 10 0 59246 50400.00000 0 -10898430.339 12001840.006 -19767997.242 10 0 59246 51300.00000 0 -10663332.071 9495654.893 -21197465.551 10 0 59246 52200.00000 0 -10608021.561 6827666.157 -22217651.665 10 0 59246 53100.00000 0 -10750144.135 4062642.224 -22808445.680 10 0 59246 54000.00000 0 -11095632.538 1268454.038 -22957959.776 10 0 59246 54900.00000 0 -11638369.031 -1486487.600 -22662789.878 10 0 59246 55800.00000 0 -12360366.680 -4135822.790 -21928119.868 10 0 59246 56700.00000 0 -13232466.134 -6617755.863 -20767663.524 10 0 59246 57600.00000 0 -14215522.747 -8877387.722 -19203441.963 10 0 59246 58500.00000 0 -15262038.076 -10868769.707 -17265397.400 10 0 59246 59400.00000 0 -16318170.418 -12556591.975 -14990847.279 10 0 59246 60300.00000 0 -17326042.014 -13917433.682 -12423786.258 10 0 59246 61200.00000 0 -18226246.576 -14940519.807 -9614047.276 10 0 59246 62100.00000 0 -18960450.868 -15627950.176 -6616336.507 10 0 59246 63000.00000 0 -19473978.601 -15994388.659 -3489160.508 10 0 59246 63900.00000 0 -19718264.308 -16066223.981 -293667.245 10 0 59246 64800.00000 0 -19653069.575 -15880237.073 2907574.697 10 0 59246 65700.00000 0 -19248363.578 -15481831.974 6051832.233 10 0 59246 66600.00000 0 -18485784.268 -14922907.047 9077471.281 10 0 59246 67500.00000 0 -17359614.883 -14259459.645 11925199.342 10 0 59246 68400.00000 0 -15877231.946 -13549029.389 14539259.214 10 0 59246 69300.00000 0 -14059004.559 -12848092.398 16868547.115 10 0 59246 70200.00000 0 -11937649.153 -12209520.666 18867630.725 10 0 59246 71100.00000 0 -9557067.992 -11680217.383 20497645.509 10 0 59246 72000.00000 0 -6970722.341 -11299030.497 21727050.925 10 0 59246 72900.00000 0 -4239611.139 -11095033.732 22532232.071 10 0 59246 73800.00000 0 -1429942.519 -11086247.390 22897936.269 10 0 59246 74700.00000 0 1389401.980 -11278851.368 22817538.063 10 0 59246 75600.00000 0 4149503.022 -11666921.042 22293130.212 10 0 59246 76500.00000 0 6784028.336 -12232693.854 21335441.912 10 0 59246 77400.00000 0 9231737.930 -12947351.821 19963589.026 10 0 59246 78300.00000 0 11438767.141 -13772283.518 18204664.262 10 0 59246 79200.00000 0 13360595.387 -14660769.457 16093177.968 10 0 59246 80100.00000 0 14963622.366 -15560017.702 13670362.687 10 0 59246 81000.00000 0 16226290.503 -16413462.885 10983356.644 10 0 59246 81900.00000 0 17139711.496 -17163231.731 8084282.902 10 0 59246 82800.00000 0 17707775.243 -17752672.302 5029242.385 10 0 59246 83700.00000 0 17946740.557 -18128842.350 1877239.810 10 0 59246 84600.00000 0 17884327.902 -18244854.562 -1310937.804 10 0 59246 85500.00000 0 17558354.070 -18061982.831 -4473869.897 10 0 59247 0.00000 0 17014966.846 -17551443.814 -7550658.321 10 0 59247 900.00000 0 16306553.312 -16695780.802 -10482070.978 10 0 59247 1800.00000 0 15489407.963 -15489794.595 -13211652.679 10 0 59247 2700.00000 0 14621256.575 -13940980.937 -15686785.732 10 0 59247 3600.00000 0 13758736.555 -12069457.566 -17859681.436 10 0 59247 4500.00000 0 12954937.072 -9907380.854 -19688285.790 10 0 59247 5400.00000 0 12257099.425 -7497874.030 -21137083.673 10 0 59247 6300.00000 0 11704572.309 -4893507.660 -22177787.045 10 0 59247 7200.00000 0 11327106.725 -2154391.390 -22789894.141 10 0 59247 8100.00000 0 11143562.202 654048.311 -22961108.388 10 0 59247 9000.00000 0 11161079.860 3463516.436 -22687607.585 10 0 59247 9900.00000 0 11374759.379 6205425.728 -21974155.952 10 0 59247 10800.00000 0 11767856.601 8813496.775 -20834054.107 10 0 59247 11700.00000 0 12312497.168 11226275.493 -19288924.594 10 0 59247 12600.00000 0 12970879.956 13389463.508 -17368333.613 10 0 59247 13500.00000 0 13696923.091 15257963.503 -15109252.838 10 0 59247 14400.00000 0 14438285.789 16797552.242 -12555368.639 10 0 59247 15300.00000 0 15138682.271 17986108.574 -9756249.736 10 0 59247 16200.00000 0 15740390.150 18814342.028 -6766387.939 10 0 59247 17100.00000 0 16186846.037 19285988.588 -3644130.089 10 0 59247 18000.00000 0 16425215.969 19417463.087 -450522.767 10 0 59247 18900.00000 0 16408828.308 19236981.605 2751906.049 10 0 59247 19800.00000 0 16099361.896 18783190.797 5900402.007 10 0 59247 20700.00000 0 15468692.467 18103363.172 8933248.158 10 0 59247 21600.00000 0 14500315.209 17251237.031 11791009.202 10 0 59247 22500.00000 0 13190280.013 16284595.685 14417728.240 10 0 59247 23400.00000 0 11547597.810 15262692.217 16762049.182 10 0 59247 24300.00000 0 9594099.926 14243632.629 18778240.255 10 0 59247 25200.00000 0 7363756.703 13281831.559 20427096.744 10 0 59247 26100.00000 0 4901485.517 12425650.779 21676704.461 10 0 59247 27000.00000 0 2261500.401 11715321.785 22503049.257 10 0 59247 27900.00000 0 -494725.013 11181240.352 22890461.870 10 0 59247 28800.00000 0 -3300793.436 10842703.881 22831891.437 10 0 59247 29700.00000 0 -6087919.119 10707142.428 22329004.992 10 0 59247 30600.00000 0 -8787555.386 10769872.557 21392114.053 10 0 59247 31500.00000 0 -11334004.661 11014380.564 20039932.910 10 0 59247 32400.00000 0 -13666903.358 11413119.202 18299176.389 10 0 59247 33300.00000 0 -15733480.334 11928780.682 16204007.651 10 0 59247 34200.00000 0 -17490497.921 12515989.313 13795349.065 10 0 59247 35100.00000 0 -18905798.665 13123340.384 11120071.209 10 0 59247 36000.00000 0 -19959397.676 13695698.401 8230076.699 10 0 59247 36900.00000 0 -20644079.333 14176657.959 5181296.946 10 0 59247 37800.00000 0 -20965477.585 14511064.713 2032620.876 10 0 59247 38700.00000 0 -20941639.871 14647492.246 -1155224.749 10 0 59247 39600.00000 0 -20602095.345 14540573.003 -4320823.281 10 0 59247 40500.00000 0 -19986467.748 14153087.896 -7403224.333 10 0 59247 41400.00000 0 -19142691.189 13457729.137 -10343088.257 10 0 59247 42300.00000 0 -18124902.582 12438464.185 -13083799.368 10 0 59247 43200.00000 0 -16991097.163 11091444.595 -15572529.175 10 0 59247 44100.00000 0 -15800642.688 9425421.628 -17761231.620 10 0 59247 45000.00000 0 -14611753.554 7461650.015 -19607553.294 10 0 59247 45900.00000 0 -13479027.746 5233281.442 -21075642.864 10 0 59247 46800.00000 0 -12451147.261 2784269.584 -22136845.195 10 0 59247 47700.00000 0 -11568836.594 167828.113 -22770267.088 10 0 59247 48600.00000 0 -10863164.001 -2555498.846 -22963203.269 10 0 59247 49500.00000 0 -10354257.009 -5320078.269 -22711413.075 10 0 59247 50400.00000 0 -10050487.484 -8057652.817 -22019240.346 10 0 59247 51300.00000 0 -9948162.798 -10699929.537 -20899571.439 10 0 59247 52200.00000 0 -10031739.192 -13181187.406 -19373628.843 10 0 59247 53100.00000 0 -10274551.780 -15440796.212 -17470600.926 10 0 59247 54000.00000 0 -10640033.870 -17425541.591 -15227111.489 10 0 59247 54900.00000 0 -11083377.013 -19091657.730 -12686536.284 10 0 59247 55800.00000 0 -11553563.729 -20406480.226 -9898177.328 10 0 59247 56700.00000 0 -11995687.698 -21349646.865 -6916309.484 10 0 59247 57600.00000 0 -12353462.716 -21913792.753 -3799117.275 10 0 59247 58500.00000 0 -12571812.200 -22104707.690 -607543.294 10 0 59247 59400.00000 0 -12599426.435 -21940947.071 2595927.676 10 0 59247 60300.00000 0 -12391175.220 -21452911.752 5748522.560 10 0 59247 61200.00000 0 -11910269.328 -20681435.971 8788444.046 10 0 59247 62100.00000 0 -11130074.918 -19675944.541 11656116.474 10 0 59247 63000.00000 0 -10035500.323 -18492259.859 14295385.553 10 0 59247 63900.00000 0 -8623893.764 -17190154.882 16654645.018 10 0 59247 64800.00000 0 -6905412.380 -15830759.258 18687865.504 10 0 59247 65700.00000 0 -4902846.554 -14473931.841 20355503.658 10 0 59247 66600.00000 0 -2650907.739 -13175713.570 21625272.799 10 0 59247 67500.00000 0 -195011.371 -11985970.229 22472760.263 10 0 59247 68400.00000 0 2410391.788 -10946325.193 22881880.517 10 0 59247 69300.00000 0 5103863.454 -10088468.727 22845157.177 10 0 59247 70200.00000 0 7819316.827 -9432913.034 22363831.062 10 0 59247 71100.00000 0 10488547.521 -8988242.411 21447795.183 10 0 59247 72000.00000 0 13043849.869 -8750886.202 20115361.129 10 0 59247 72900.00000 0 15420609.886 -8705419.830 18392864.454 10 0 59247 73800.00000 0 17559768.228 -8825376.999 16314119.502 10 0 59247 74700.00000 0 19410052.890 -9074535.085 13919736.608 10 0 59247 75600.00000 0 20929891.998 -9408616.576 11256316.623 10 0 59247 76500.00000 0 22088930.828 -9777332.907 8375539.395 10 0 59247 77400.00000 0 22869093.947 -10126683.757 5333164.301 10 0 59247 78300.00000 0 23265152.181 -10401415.193 2187961.766 10 0 59247 79200.00000 0 23284774.340 -10547534.396 -999404.535 10 0 59247 80100.00000 0 22948064.309 -10514777.062 -4167524.737 10 0 59247 81000.00000 0 22286604.665 -10258926.052 -7255398.979 10 0 59247 81900.00000 0 21342047.464 -9743886.211 -10203582.882 10 0 59247 82800.00000 0 20164310.651 -8943430.343 -12955302.717 10 0 59247 83700.00000 0 18809454.016 -7842544.507 -15457521.445 10 0 59247 84600.00000 0 17337321.125 -6438316.700 -17661937.653 10 0 59247 85500.00000 0 15809042.972 -4740331.167 -19525900.249 10 0 59248 0.00000 0 14284504.588 -2770550.036 -21013223.096 10 0 59248 900.00000 0 12819877.706 -562683.777 -22094885.141 10 0 59248 1800.00000 0 11465319.777 1838925.906 -22749602.539 10 0 59248 2700.00000 0 10262934.980 4380870.634 -22964261.769 10 0 59248 3600.00000 0 9245080.597 7002625.432 -22734203.809 10 0 59248 4500.00000 0 8433091.252 9638808.699 -22063351.844 10 0 59248 5400.00000 0 7836475.468 12221661.790 -20964177.301 10 0 59248 6300.00000 0 7452620.829 14683648.205 -19457501.584 10 0 59248 7200.00000 0 7267023.082 16960065.851 -17572133.808 10 0 59248 8100.00000 0 7254032.705 18991563.977 -15344348.112 10 0 59248 9000.00000 0 7378090.394 20726458.775 -12817207.476 10 0 59248 9900.00000 0 7595401.616 22122748.673 -10039744.711 10 0 59248 10800.00000 0 7855980.692 23149741.968 -7066014.928 10 0 59248 11700.00000 0 8105977.930 23789225.146 -3954037.244 10 0 59248 12600.00000 0 8290189.929 24036119.393 -764646.995 10 0 59248 13500.00000 0 8354644.058 23898594.926 2439717.599 10 0 59248 14400.00000 0 8249143.935 23397636.427 5596268.102 10 0 59248 15300.00000 0 7929663.760 22566077.279 8643130.080 10 0 59248 16200.00000 0 7360485.584 21447144.027 11520590.528 10 0 59248 17100.00000 0 6515984.848 20092574.420 14172300.508 10 0 59248 18000.00000 0 5381985.237 18560391.420 16546405.975 10 0 59248 18900.00000 0 3956623.194 16912430.637 18596581.994 10 0 59248 19800.00000 0 2250684.437 15211729.161 20282948.203 10 0 59248 20700.00000 0 287398.386 13519889.216 21572846.643 10 0 59248 21600.00000 0 -1898299.691 11894530.200 22441466.907 10 0 59248 22500.00000 0 -4261005.908 10386937.713 22872307.510 10 0 59248 23400.00000 0 -6746530.016 9040008.545 22857466.387 10 0 59248 24300.00000 0 -9293949.828 7886576.587 22397757.469 10 0 59248 25200.00000 0 -11837949.865 6948187.335 21502654.088 10 0 59248 26100.00000 0 -14311345.074 6234368.843 20190063.440 10 0 59248 27000.00000 0 -16647683.883 5742425.324 18485939.647 10 0 59248 27900.00000 0 -18783822.646 5457757.491 16423745.661 10 0 59248 28800.00000 0 -20662365.744 5354691.771 14043776.870 10 0 59248 29700.00000 0 -22233872.248 5397779.678 11392361.251 10 0 59248 30600.00000 0 -23458740.512 5543509.723 8520952.630 10 0 59248 31500.00000 0 -24308695.770 5742358.019 5485135.077 10 0 59248 32400.00000 0 -24767822.589 5941090.535 2343557.345 10 0 59248 33300.00000 0 -24833102.642 6085220.545 -843183.016 10 0 59248 34200.00000 0 -24514438.328 6121519.177 -4013685.760 10 0 59248 35100.00000 0 -23834163.377 6000475.442 -7106904.190 10 0 59248 36000.00000 0 -22826061.963 5678604.602 -10063291.627 10 0 59248 36900.00000 0 -21533937.243 5120510.129 -12825918.495 10 0 59248 37800.00000 0 -20009787.997 4300614.523 -15341541.164 10 0 59248 38700.00000 0 -18311667.376 3204487.393 -17561604.529 10 0 59248 39600.00000 0 -16501310.393 1829715.262 -19443161.143 10 0 59248 40500.00000 0 -14641625.987 186275.511 -20949691.058 10 0 59248 41400.00000 0 -12794155.015 -1703603.512 -22051807.737 10 0 59248 42300.00000 0 -11016597.395 -3806093.732 -22727836.813 10 0 59248 43200.00000 0 -9360509.278 -6076907.109 -22964256.183 10 0 59248 44100.00000 0 -7869264.981 -8462881.143 -22755987.683 10 0 59248 45000.00000 0 -6576368.550 -10903948.888 -22106532.656 10 0 59248 45900.00000 0 -5504186.261 -13335415.903 -21027946.052 10 0 59248 46800.00000 0 -4663154.829 -15690452.948 -19540646.297 10 0 59248 47700.00000 0 -4051501.014 -17902703.017 -17673061.093 10 0 59248 48600.00000 0 -3655487.244 -19908895.092 -15461112.528 10 0 59248 49500.00000 0 -3450175.760 -21651355.193 -12947548.259 10 0 59248 50400.00000 0 -3400681.552 -23080307.995 -10181129.260 10 0 59248 51300.00000 0 -3463862.826 -24155869.869 -7215688.215 10 0 59248 52200.00000 0 -3590378.038 -24849646.326 -4109076.193 10 0 59248 53100.00000 0 -3727021.710 -25145862.989 -922018.689 10 0 59248 54000.00000 0 -3819238.009 -25041979.171 2283095.141 10 0 59248 54900.00000 0 -3813702.350 -24548755.484 5443463.916 10 0 59248 55800.00000 0 -3660857.604 -23689771.088 8497138.396 10 0 59248 56700.00000 0 -3317292.943 -22500410.631 11384270.442 10 0 59248 57600.00000 0 -2747860.177 -21026364.672 14048318.523 10 0 59248 58500.00000 0 -1927434.133 -19321709.061 16437182.684 10 0 59248 59400.00000 0 -842239.654 -17446647.342 18504244.038 10 0 59248 60300.00000 0 509312.664 -15465014.768 20209286.518 10 0 59248 61200.00000 0 2116317.820 -13441652.498 21519281.826 10 0 59248 62100.00000 0 3955607.218 -11439765.297 22409022.364 10 0 59248 63000.00000 0 5992507.710 -9518375.692 22861590.838 10 0 59248 63900.00000 0 8182094.688 -7729982.231 22868659.243 10 0 59248 64800.00000 0 10470884.212 -6118519.349 22430614.007 10 0 59248 65700.00000 0 12798890.945 -4717702.309 21556507.825 10 0 59248 66600.00000 0 15101963.864 -3549823.386 20263842.276 10 0 59248 67500.00000 0 17314301.023 -2625045.507 18578188.572 10 0 59248 68400.00000 0 19371038.226 -1941218.278 16532656.589 10 0 59248 69300.00000 0 21210804.353 -1484219.326 14167224.890 10 0 59248 70200.00000 0 22778138.603 -1228802.168 11527946.522 10 0 59248 71100.00000 0 24025671.493 -1139911.201 8666047.062 10 0 59248 72000.00000 0 24915981.793 -1174405.849 5636932.873 10 0 59248 72900.00000 0 25423055.511 -1283119.689 2499128.489 10 0 59248 73800.00000 0 25533289.460 -1413167.547 -686837.307 10 0 59248 74700.00000 0 25246000.564 -1510404.155 -3859576.573 10 0 59248 75600.00000 0 24573422.011 -1521932.448 -6957998.416 10 0 59248 76500.00000 0 23540187.822 -1398558.112 -9922456.382 10 0 59248 77400.00000 0 22182327.685 -1097089.515 -12695867.381 10 0 59248 78300.00000 0 20545813.225 -582388.526 -15224783.301 10 0 59248 79200.00000 0 18684714.544 170912.292 -17460397.194 10 0 59248 80100.00000 0 16659041.238 1177097.391 -19359466.866 10 0 59248 81000.00000 0 14532354.676 2438516.187 -20885139.897 10 0 59248 81900.00000 0 12369247.512 3945228.517 -22007665.457 10 0 59248 82800.00000 0 10232792.136 5675165.110 -22704979.550 10 0 59248 83700.00000 0 8182061.476 7594800.137 -22963152.148 10 0 59248 84600.00000 0 6269823.300 9660312.274 -22776686.334 10 0 59248 85500.00000 0 4540503.138 11819190.571 -22148661.675 10 0 59249 0.00000 0 3028500.690 14012222.845 -21090716.391 10 0 59249 900.00000 0 1756931.271 16175787.940 -19622865.174 10 0 59249 1800.00000 0 736846.254 18244358.979 -17773153.271 10 0 59249 2700.00000 0 -33031.064 20153115.175 -15577149.190 10 0 59249 3600.00000 0 -566041.906 21840553.511 -13077283.345 10 0 59249 4500.00000 0 -886808.063 23250989.589 -10322042.535 10 0 59249 5400.00000 0 -1029959.227 24336840.723 -7365034.333 10 0 59249 6300.00000 0 -1038424.143 25060592.061 -4263938.759 10 0 59249 7200.00000 0 -961358.021 25396359.243 -1079368.227 10 0 59249 8100.00000 0 -851795.382 25330978.038 2126340.554 10 0 59249 9000.00000 0 -764130.466 24864571.636 5290376.693 10 0 59249 9900.00000 0 -751535.591 24010569.267 8350719.518 10 0 59249 10800.00000 0 -863431.197 22795174.084 11247388.981 10 0 59249 11700.00000 0 -1143119.216 21256302.836 13923653.953 10 0 59249 12600.00000 0 -1625684.129 19442043.439 16327171.265 10 0 59249 13500.00000 0 -2336253.995 17408697.861 18411030.436 10 0 59249 14400.00000 0 -3288697.334 15218495.821 20134681.675 10 0 59249 15300.00000 0 -4484812.088 12937078.886 21464727.923 10 0 59249 16200.00000 0 -5914040.743 10630863.734 22375565.527 10 0 59249 17100.00000 0 -7553722.504 8364397.633 22849862.048 10 0 59249 18000.00000 0 -9369869.820 6197818.370 22878863.710 10 0 59249 18900.00000 0 -11318434.155 4184525.019 22462529.065 10 0 59249 19800.00000 0 -13347005.323 2369155.646 21609489.247 10 0 59249 20700.00000 0 -15396870.756 785953.944 20336838.735 10 0 59249 21600.00000 0 -17405346.814 -542410.704 18669763.813 10 0 59249 22500.00000 0 -19308283.735 -1605524.914 16641018.772 10 0 59249 23400.00000 0 -21042639.546 -2405391.076 14290262.432 10 0 59249 24300.00000 0 -22549016.491 -2956063.410 11663269.670 10 0 59249 25200.00000 0 -23774056.031 -3282779.916 8811034.364 10 0 59249 26100.00000 0 -24672595.027 -3420630.177 5788781.643 10 0 59249 27000.00000 0 -25209496.204 -3412817.434 2654908.306 10 0 59249 27900.00000 0 -25361079.719 -3308589.257 -530129.035 10 0 59249 28800.00000 0 -25116099.035 -3160923.880 -3704957.987 10 0 59249 29700.00000 0 -24476222.873 -3024068.546 -6808446.496 10 0 59249 30600.00000 0 -23456004.762 -2951031.649 -9780851.136 10 0 59249 31500.00000 0 -22082342.181 -2991131.825 -12564937.855 10 0 59249 32400.00000 0 -20393447.398 -3187704.734 -15107056.321 10 0 59249 33300.00000 0 -18437371.407 -3576061.758 -17358149.687 10 0 59249 34200.00000 0 -16270140.035 -4181784.928 -19274682.563 10 0 59249 35100.00000 0 -13953576.662 -5019429.140 -20819471.182 10 0 59249 36000.00000 0 -11552898.498 -6091686.734 -21962401.034 10 0 59249 36900.00000 0 -9134182.828 -7389051.307 -22681018.600 10 0 59249 37800.00000 0 -6761805.195 -8889997.850 -22960985.492 10 0 59249 38700.00000 0 -4495953.315 -10561675.667 -22796385.104 10 0 59249 39600.00000 0 -2390318.412 -12361089.608 -22189873.830 10 0 59249 40500.00000 0 -490059.303 -14236724.981 -21152671.278 10 0 59249 41400.00000 0 1169875.571 -16130552.697 -19704386.404 10 0 59249 42300.00000 0 2565996.692 -17980334.394 -17872679.462 10 0 59249 43200.00000 0 3687038.293 -19722133.725 -15692762.747 10 0 59249 44100.00000 0 4534204.830 -21292929.789 -13206746.587 10 0 59249 45000.00000 0 5120886.063 -22633222.773 -10462840.682 10 0 59249 45900.00000 0 5471850.503 -23689520.737 -7514424.493 10 0 59249 46800.00000 0 5621949.717 -24416600.049 -4419004.010 10 0 59249 47700.00000 0 5614387.733 -24779440.619 -1237075.635 10 0 59249 48600.00000 0 5498629.535 -24754750.374 1969079.206 10 0 59249 49500.00000 0 5328039.268 -24332010.781 5136642.799 10 0 59249 50400.00000 0 5157351.312 -23513996.149 8203525.553 10 0 59249 51300.00000 0 5040085.393 -22316742.612 11109617.812 10 0 59249 52200.00000 0 5026019.632 -20768967.210 13798000.896 10 0 59249 53100.00000 0 5158832.835 -18910962.034 16216090.172 10 0 59249 54000.00000 0 5474019.645 -16793011.676 18316684.970 10 0 59249 54900.00000 0 5997169.599 -14473403.135 20058902.801 10 0 59249 55800.00000 0 6742684.515 -12016114.986 21408978.454 10 0 59249 56700.00000 0 7712988.795 -9488285.930 22340912.412 10 0 59249 57600.00000 0 8898265.184 -6957571.531 22836956.858 10 0 59249 58500.00000 0 10276725.300 -4489501.782 22887931.608 10 0 59249 59400.00000 0 11815401.100 -2144950.659 22493366.352 10 0 59249 60300.00000 0 13471421.213 22177.175 21661469.375 10 0 59249 61200.00000 0 15193715.817 1966947.819 20408926.510 10 0 59249 62100.00000 0 16925076.231 3655007.363 18760537.377 10 0 59249 63000.00000 0 18604481.372 5063735.873 16748698.785 10 0 59249 63900.00000 0 20169592.876 6182902.593 14412747.784 10 0 59249 64800.00000 0 21559314.809 7014800.014 11798178.955 10 0 59249 65700.00000 0 22716312.127 7573855.917 8955752.250 10 0 59249 66600.00000 0 23589384.569 7885743.736 5940509.258 10 0 59249 67500.00000 0 24135599.443 7986031.799 2810716.663 10 0 59249 68400.00000 0 24322097.067 7918430.183 -373243.508 10 0 59249 69300.00000 0 24127496.333 7732709.669 -3550016.807 10 0 59249 70200.00000 0 23542844.234 7482379.940 -6658432.353 10 0 59249 71100.00000 0 22572071.590 7222223.318 -9638651.947 10 0 59249 72000.00000 0 21231936.925 7005785.664 -12433292.599 10 0 59249 72900.00000 0 19551460.792 6882927.522 -14988503.566 10 0 59249 73800.00000 0 17570872.901 6897535.992 -17254979.693 10 0 59249 74700.00000 0 15340113.747 7085491.461 -19188893.777 10 0 59249 75600.00000 0 12916949.998 7472973.268 -20752731.907 10 0 59249 76500.00000 0 10364778.348 8075175.199 -21916016.954 10 0 59249 77400.00000 0 7750205.239 8895485.555 -22655906.785 10 0 59249 78300.00000 0 5140499.204 9925168.323 -22957655.419 10 0 59249 79200.00000 0 2601018.329 11143562.024 -22814927.127 10 0 59249 80100.00000 0 192717.285 12518791.900 -22229955.444 10 0 59249 81000.00000 0 -2030163.932 14008970.139 -21213541.395 10 0 59249 81900.00000 0 -4022133.751 15563838.351 -19784887.751 10 0 59249 82800.00000 0 -5748119.660 17126787.483 -17971269.022 10 0 59249 83700.00000 0 -7184704.314 18637173.645 -15807540.049 10 0 59249 84600.00000 0 -8320873.067 20032834.570 -13335489.431 10 0 59249 85500.00000 0 -9158238.835 21252701.419 -10603047.707 99